QTR122 OMDB-VABB

Flight info

Callsign QTR122
Flight time N/A
Altitude 41000
Route IVURO M677 LALDO B505 NADSO A777 VAXIM L301 KARKU M638 EXOLU POKON2A
Aircraft A359/H-SDE2E3GHIJ3J4J5LM1ORWXY/LB1D1

Departure

Time 2026-05-04 09:34
Airport Dubai International Airport (OMDB)

Arrival

Time N/A
Airport Chhatrapati Shivaji Maharaj International Airport (VABB)
Time Latitude Longitude Altitude Speed Heading
2026-05-04 09:15 25.25114 55.38211 37 ft 0 kts 32°
2026-05-04 09:25 25.25094 55.38198 39 ft 4 kts 32°
2026-05-04 09:25 25.25072 55.38181 36 ft 4 kts 41°
2026-05-04 09:26 25.25053 55.38160 37 ft 4 kts 50°
2026-05-04 09:26 25.25041 55.38143 34 ft 1 kts 50°
2026-05-04 09:26 25.25038 55.38140 34 ft 0 kts 50°
2026-05-04 09:29 25.25040 55.38142 34 ft 1 kts 50°
2026-05-04 09:30 25.25045 55.38162 36 ft 5 kts 82°
2026-05-04 09:30 25.25022 55.38204 40 ft 9 kts 136°
2026-05-04 09:30 25.24959 55.38237 40 ft 0 kts 178°
2026-05-04 09:31 25.24944 55.38237 40 ft 7 kts 178°
2026-05-04 09:31 25.24887 55.38261 40 ft 10 kts 137°
2026-05-04 09:31 25.24845 55.38323 41 ft 11 kts 121°
2026-05-04 09:31 25.24802 55.38400 42 ft 13 kts 122°
2026-05-04 09:32 25.24754 55.38486 42 ft 14 kts 122°
2026-05-04 09:32 25.24673 55.38539 46 ft 14 kts 166°
2026-05-04 09:34 25.24349 55.38121 34 ft 94 kts 301°
2026-05-04 09:34 25.24798 55.37315 23 ft 154 kts 302°
2026-05-04 09:34 25.25402 55.36201 464 ft 172 kts 300°
2026-05-04 09:34 25.25990 55.35075 1338 ft 168 kts 300°
2026-05-04 09:35 25.26690 55.33942 1804 ft 190 kts 304°
2026-05-04 09:35 25.27512 55.32673 2063 ft 215 kts 305°
2026-05-04 09:35 25.28397 55.31288 2633 ft 225 kts 305°
2026-05-04 09:35 25.29477 55.30024 3360 ft 229 kts 325°
2026-05-04 09:37 25.40576 55.30768 8397 ft 259 kts 39°
2026-05-04 09:37 25.41840 55.32299 8733 ft 280 kts 48°
2026-05-04 09:38 25.43058 55.34037 9268 ft 291 kts 51°
2026-05-04 09:38 25.44018 55.36041 9880 ft 301 kts 68°
2026-05-04 09:38 25.44335 55.38333 10360 ft 316 kts 90°
2026-05-04 09:38 25.44102 55.40828 10642 ft 336 kts 97°
2026-05-04 09:39 25.43717 55.43449 10897 ft 354 kts 98°
2026-05-04 09:39 25.43299 55.46194 11155 ft 369 kts 98°
2026-05-04 09:39 25.42866 55.49047 11479 ft 381 kts 98°
2026-05-04 09:39 25.42425 55.51960 11986 ft 386 kts 98°
2026-05-04 09:40 25.41981 55.54903 12569 ft 390 kts 98°
2026-05-04 09:40 25.41534 55.57874 13106 ft 393 kts 98°
2026-05-04 09:40 25.41084 55.60864 13680 ft 396 kts 98°
2026-05-04 09:40 25.40635 55.63846 14169 ft 400 kts 98°
2026-05-04 09:41 25.40175 55.66895 14664 ft 404 kts 98°
2026-05-04 09:42 25.36832 55.88960 18272 ft 427 kts 97°
2026-05-04 09:43 25.36343 55.92168 18706 ft 430 kts 97°
2026-05-04 09:43 25.35844 55.95443 19175 ft 434 kts 97°
2026-05-04 09:43 25.35340 55.98735 19650 ft 437 kts 97°
2026-05-04 09:43 25.34831 56.02059 20126 ft 440 kts 98°
2026-05-04 09:44 25.34318 56.05405 20623 ft 443 kts 98°
2026-05-04 09:44 25.33801 56.08776 21116 ft 447 kts 98°
2026-05-04 09:44 25.33277 56.12174 21601 ft 450 kts 98°
2026-05-04 09:46 25.30988 56.36869 24671 ft 478 kts 94°
2026-05-04 09:46 25.30697 56.40546 25064 ft 482 kts 94°
2026-05-04 09:46 25.30490 56.44211 25476 ft 486 kts 91°
2026-05-04 09:47 25.30380 56.47962 25893 ft 491 kts 90°
2026-05-04 09:47 25.30309 56.51750 26299 ft 495 kts 90°
2026-05-04 09:49 25.23466 56.77870 29051 ft 526 kts 114°
2026-05-04 09:49 25.22041 56.81539 29423 ft 530 kts 114°
2026-05-04 09:49 25.20590 56.85297 29786 ft 534 kts 114°
2026-05-04 09:51 25.11790 57.08351 31708 ft 549 kts 113°
2026-05-04 09:51 25.10323 57.12191 31985 ft 552 kts 113°
2026-05-04 09:51 25.08826 57.16101 32229 ft 555 kts 113°
2026-05-04 09:51 25.07326 57.20018 32532 ft 556 kts 113°
2026-05-04 09:52 25.05824 57.23937 32977 ft 554 kts 114°
2026-05-04 09:52 25.04324 57.27845 33399 ft 553 kts 114°
2026-05-04 09:52 25.02826 57.31745 33792 ft 552 kts 114°
2026-05-04 09:52 25.01330 57.35637 34131 ft 551 kts 114°
2026-05-04 09:53 24.99836 57.39519 34477 ft 549 kts 114°
2026-05-04 09:53 24.98362 57.43345 34844 ft 547 kts 113°
2026-05-04 09:53 24.96884 57.47179 35265 ft 543 kts 113°
2026-05-04 09:53 24.95408 57.51005 35625 ft 542 kts 114°
2026-05-04 09:54 24.93933 57.54824 35921 ft 541 kts 114°
2026-05-04 09:54 24.92459 57.58638 36232 ft 541 kts 114°
2026-05-04 09:54 24.90986 57.62445 36537 ft 540 kts 114°
2026-05-04 09:54 24.89515 57.66242 36864 ft 539 kts 114°
2026-05-04 09:55 24.88043 57.70040 37090 ft 539 kts 114°
2026-05-04 09:55 24.86570 57.73838 37359 ft 539 kts 114°
2026-05-04 09:55 24.85121 57.77569 37671 ft 537 kts 114°
2026-05-04 09:55 24.83653 57.81348 37969 ft 536 kts 114°
2026-05-04 09:56 24.82172 57.85108 38282 ft 534 kts 115°
2026-05-04 09:56 24.80607 57.88799 38620 ft 531 kts 116°
2026-05-04 09:56 24.78993 57.92447 38837 ft 530 kts 117°
2026-05-04 09:56 24.77361 57.96084 38992 ft 530 kts 117°
2026-05-04 09:57 24.75730 57.99727 39159 ft 531 kts 117°
2026-05-04 09:57 24.74108 58.03371 39358 ft 530 kts 116°
2026-05-04 09:57 24.72520 58.06966 39554 ft 529 kts 116°
2026-05-04 09:57 24.70919 58.10607 39741 ft 528 kts 116°
2026-05-04 09:58 24.69324 58.14245 39928 ft 528 kts 116°
2026-05-04 09:58 24.67732 58.17878 40093 ft 527 kts 116°
2026-05-04 09:58 24.66144 58.21499 40263 ft 527 kts 116°
2026-05-04 10:00 24.55003 58.46807 40737 ft 526 kts 116°
2026-05-04 10:00 24.53406 58.50422 40737 ft 526 kts 116°
2026-05-04 10:04 24.31063 59.00730 40730 ft 524 kts 116°
2026-05-04 10:04 24.27860 59.07901 40729 ft 523 kts 116°
2026-05-04 10:05 24.24659 59.15058 40730 ft 523 kts 116°
2026-05-04 10:05 24.21459 59.22199 40730 ft 523 kts 116°
2026-05-04 10:06 24.18275 59.29296 40730 ft 523 kts 116°
2026-05-04 10:06 24.15064 59.36441 40730 ft 523 kts 116°
2026-05-04 10:08 24.03828 59.61366 40729 ft 522 kts 116°
2026-05-04 10:08 24.00609 59.68474 40727 ft 522 kts 117°
2026-05-04 10:09 23.97382 59.75590 40724 ft 522 kts 117°
2026-05-04 10:09 23.94153 59.82705 40724 ft 522 kts 117°
2026-05-04 10:10 23.90945 59.89764 40725 ft 521 kts 117°
2026-05-04 10:10 23.87716 59.96856 40722 ft 521 kts 117°
2026-05-04 10:11 23.84482 60.03951 40722 ft 522 kts 117°
2026-05-04 10:11 23.81244 60.11042 40722 ft 522 kts 117°
2026-05-04 10:12 23.78028 60.18076 40726 ft 522 kts 117°
2026-05-04 10:12 23.74779 60.25169 40722 ft 523 kts 117°
2026-05-04 10:13 23.71527 60.32259 40716 ft 522 kts 117°
2026-05-04 10:13 23.68279 60.39332 40717 ft 521 kts 117°
2026-05-04 10:14 23.65028 60.46398 40718 ft 521 kts 117°
2026-05-04 10:16 23.52002 60.74611 40719 ft 520 kts 117°
2026-05-04 10:16 23.48761 60.81604 40719 ft 521 kts 117°
2026-05-04 10:17 23.45492 60.88649 40716 ft 521 kts 117°
2026-05-04 10:19 23.32589 61.16841 40719 ft 521 kts 109°
2026-05-04 10:19 23.31105 61.24512 40719 ft 518 kts 96°
2026-05-04 10:20 23.30353 61.32319 40721 ft 519 kts 94°
2026-05-04 10:20 23.29710 61.40094 40722 ft 520 kts 94°
2026-05-04 10:21 23.29043 61.47931 40722 ft 520 kts 94°
2026-05-04 10:21 23.28347 61.55768 40722 ft 521 kts 94°
2026-05-04 10:22 23.27283 61.67513 40722 ft 521 kts 95°
2026-05-04 10:23 23.26573 61.75296 40722 ft 521 kts 95°
2026-05-04 10:25 23.23688 62.06555 40724 ft 519 kts 95°
2026-05-04 10:25 23.22958 62.14360 40725 ft 519 kts 95°
2026-05-04 10:26 23.22224 62.22161 40727 ft 519 kts 95°
2026-05-04 10:26 23.21486 62.29964 40730 ft 519 kts 95°
2026-05-04 10:27 23.20749 62.37717 40727 ft 519 kts 95°
2026-05-04 10:27 23.20003 62.45521 40727 ft 519 kts 95°
2026-05-04 10:28 23.19253 62.53325 40736 ft 519 kts 95°
2026-05-04 10:28 23.18499 62.61137 40731 ft 520 kts 95°
2026-05-04 10:29 23.17745 62.68903 40729 ft 521 kts 95°
2026-05-04 10:29 23.16981 62.76730 40731 ft 521 kts 95°
2026-05-04 10:30 23.16213 62.84556 40734 ft 521 kts 95°
2026-05-04 10:30 23.15441 62.92388 40736 ft 521 kts 95°
2026-05-04 10:31 23.14669 63.00172 40731 ft 521 kts 95°
2026-05-04 10:32 23.11924 63.27560 40735 ft 522 kts 95°
2026-05-04 10:33 23.11136 63.35342 40736 ft 522 kts 95°
2026-05-04 10:33 23.10337 63.43175 40735 ft 522 kts 95°
2026-05-04 10:34 23.09535 63.51008 40738 ft 522 kts 95°
2026-05-04 10:34 23.08730 63.58840 40738 ft 522 kts 95°
2026-05-04 10:35 23.07920 63.66673 40733 ft 522 kts 95°
2026-05-04 10:35 23.07112 63.74444 40740 ft 522 kts 95°
2026-05-04 10:36 23.06294 63.82278 40736 ft 522 kts 95°
2026-05-04 10:36 23.04557 63.89924 40737 ft 523 kts 110°
2026-05-04 10:37 23.01913 63.97288 40735 ft 524 kts 112°
2026-05-04 10:37 22.99127 64.04594 40733 ft 524 kts 112°
2026-05-04 10:39 22.89416 64.30154 40730 ft 525 kts 112°
2026-05-04 10:40 22.86639 64.37475 40734 ft 525 kts 112°
2026-05-04 10:40 22.83877 64.44742 40728 ft 525 kts 112°
2026-05-04 10:41 22.81090 64.52060 40731 ft 525 kts 112°
2026-05-04 10:41 22.78304 64.59366 40731 ft 524 kts 112°
2026-05-04 10:42 22.75514 64.66670 40727 ft 524 kts 112°
2026-05-04 10:42 22.72740 64.73921 40727 ft 524 kts 112°
2026-05-04 10:43 22.69943 64.81218 40728 ft 524 kts 112°
2026-05-04 10:45 22.58752 65.10306 40733 ft 523 kts 112°
2026-05-04 10:45 22.55946 65.17573 40727 ft 523 kts 112°
2026-05-04 10:46 22.53136 65.24835 40727 ft 523 kts 113°
2026-05-04 10:46 22.50323 65.32096 40735 ft 523 kts 113°
2026-05-04 10:47 22.47525 65.39305 40727 ft 524 kts 113°
2026-05-04 10:47 22.44700 65.46573 40727 ft 524 kts 113°
2026-05-04 10:49 22.33396 65.75547 40727 ft 524 kts 113°
2026-05-04 10:50 22.30555 65.82799 40727 ft 524 kts 113°
2026-05-04 10:52 22.19176 66.11740 40727 ft 524 kts 113°
2026-05-04 10:52 22.16320 66.18974 40733 ft 524 kts 113°
2026-05-04 10:54 22.04887 66.47831 40730 ft 524 kts 113°
2026-05-04 10:56 21.93392 66.76679 40730 ft 524 kts 113°
2026-05-04 10:57 21.90507 66.83892 40729 ft 524 kts 113°
2026-05-04 10:57 21.87622 66.91095 40733 ft 524 kts 113°
2026-05-04 10:58 21.84727 66.98312 40731 ft 525 kts 113°
2026-05-04 10:58 21.81826 67.05533 40727 ft 526 kts 113°
2026-05-04 10:59 21.78940 67.12704 40727 ft 526 kts 113°
2026-05-04 10:59 21.76033 67.19920 40723 ft 525 kts 114°
2026-05-04 11:00 21.73127 67.27121 40729 ft 525 kts 114°
2026-05-04 11:02 21.61486 67.55861 40737 ft 525 kts 114°
2026-05-04 11:05 21.39540 68.09594 40735 ft 524 kts 114°
2026-05-04 11:06 21.36600 68.16748 40735 ft 524 kts 114°
2026-05-04 11:06 21.33658 68.23897 40740 ft 524 kts 114°
2026-05-04 11:10 21.13051 68.73688 40741 ft 523 kts 114°
2026-05-04 11:12 21.01230 69.02032 40741 ft 521 kts 114°
2026-05-04 11:12 20.98274 69.09104 40743 ft 521 kts 114°
2026-05-04 11:13 20.95834 69.16397 40744 ft 521 kts 108°
2026-05-04 11:13 20.93595 69.23766 40744 ft 521 kts 108°
2026-05-04 11:16 20.82468 69.60595 40746 ft 522 kts 108°